Location: ????????
(37.8903°N, 23.9829°E)
Time: 19:36:31
(UTC+00:00)

Daily predictions for brighter satellites

Satellite Brightness Start Highest point End
(mag) Time Altitude Azimuth Time Altitude Azimuth Time Altitude Azimuth
NOSS 3-2 (C) 4.3 18:14:06 10° SW 18:19:28 53° NW 18:25:35 10° NNE
Cosmos 292 Rocket 3.8 18:15:36 10° SSW 18:20:26 84° ESE 18:25:16 10° NNE
Meteor 1-22 Rocket 4.4 18:19:49 10° N 18:25:39 81° W 18:31:12 10° S
Cosmos 1378 Rocket 3.7 18:22:14 10° S 18:26:33 80° W 18:30:58 10° N
Okean 1 Rocket 3.2 18:23:46 10° N 18:28:05 57° E 18:32:24 10° SSE
Cosmos 1707 2.8 18:25:59 10° S 18:29:47 60° E 18:33:38 10° NNE
IGS 5A 4.5 18:26:56 10° SE 18:30:34 30° ENE 18:34:14 10° N
Cosmos 1315 Rocket 3.0 18:28:41 10° N 18:32:46 59° E 18:36:48 10° SSE
ERS-2 2.6 18:29:53 10° N 18:33:31 65° WNW 18:37:07 10° SSW
Helios 1A Rocket 3.9 18:30:22 10° S 18:34:16 45° W 18:38:10 10° NNW
Cosmos 1461 4.4 18:32:17 10° N 18:35:41 23° NE 18:38:56 10° ESE
Cosmos 1452 Rocket 3.5 18:30:46 10° SSW 18:36:02 82° ESE 18:41:21 10° NNE
Cosmos 2219 Rocket 3.5 18:34:17 10° SE 18:38:13 20° E 18:42:10 10° NE
ATLAS CENTAUR R/B 3.9 18:36:21 10° NNE 18:38:15 12° NE 18:40:11 10° ENE
Cosmos 2333 Rocket 3.3 18:34:38 10° SSE 18:39:09 24° ESE 18:43:39 10° NE
Resurs 1-3 3.6 18:35:30 10° SSE 18:39:52 79° ENE 18:44:16 10° N
SL-4 R/B 3.6 18:39:19 10° SSE 18:42:03 16° SE 18:44:42 10° E
Cosmos 1727 Rocket 4.0 18:41:07 10° S 18:47:21 66° E 18:53:34 10° NNE
Cosmos 1850 Rocket 4.5 18:43:59 10° N 18:49:05 47° ENE 18:53:17 14° SE
Cosmos 1025 Rocket 4.3 18:46:54 13° SE 18:49:43 24° E 18:53:13 10° NE
Lacrosse 5 rocket 1.6 18:47:33 10° SW 18:51:17 62° NW 18:54:54 10° NE
FALCON 9 DEB 2.7 18:48:16 10° SW 18:51:22 73° SE 18:54:29 10° NE
Cosmos 1605 Rocket 4.2 18:46:15 10° N 18:52:39 82° W 18:58:57 10° S
Cosmos 1331 Rocket 4.2 18:48:20 10° S 18:53:20 50° ESE 18:58:26 10° NNE
Cosmos 1758 3.2 18:49:54 10° N 18:53:52 75° E 18:57:32 12° SSE
BREEZE-M DEB (TANK) 1.1 18:56:48 10° SW 18:59:08 87° NW 19:02:00 10° NE
Cosmos 2360 Rocket 2.2 18:56:28 10° SSW 19:02:07 89° ESE 19:07:48 10° NNE
SPOT 1/Viking Rocket 4.0 19:00:03 16° SE 19:03:48 44° ENE 19:08:40 10° N
Terra 3.9 19:02:31 10° E 19:04:49 14° ENE 19:07:08 10° NE
KORONAS-FOTON 3.7 19:02:02 11° S 19:05:41 65° E 19:09:26 10° NNE
Cosmos 2322 Rocket 3.3 19:00:46 10° SW 19:06:15 48° WNW 19:11:47 10° N
SL-16 R/B 3.8 19:01:09 10° SW 19:06:21 37° WNW 19:11:35 10° N
FALCON 9 DEB 3.9 19:04:09 10° WSW 19:07:08 48° NW 19:10:09 10° NE
Cosmos 1674 2.5 19:06:31 11° S 19:10:00 75° E 19:13:42 10° N
Cosmos 1726 3.5 19:06:58 10° NNW 19:10:19 36° W 19:13:40 10° SSW
SPOT 5 4.3 19:09:02 16° ESE 19:11:42 24° ENE 19:15:35 10° NNE
OBJECT-B 3.7 19:10:16 10° WSW 19:11:49 13° W 19:13:23 10° WNW
CZ-2C R/B 3.8 19:07:56 10° NNE 19:12:43 68° ESE 19:17:26 10° S
USA 245 4.4 19:11:05 20° SE 19:14:19 50° ENE 19:19:52 10° N
Cosmos 1975 Rocket 3.0 19:10:25 10° S 19:14:46 86° W 19:19:11 10° N
Cosmos 1459 Rocket 4.2 19:09:03 10° N 19:14:56 51° E 19:19:00 20° SSE
FALCON 9 DEB 3.6 19:11:57 10° WSW 19:14:59 54° NW 19:18:04 10° NE
ASTRO E2 3.5 19:13:24 10° WSW 19:16:55 31° S 19:17:59 26° SE
FALCON 9 DEB 4.3 19:14:44 10° WSW 19:17:41 40° NW 19:20:39 10° NE
Cosmos 1953 2.4 19:14:12 10° N 19:18:13 58° E 19:20:21 25° SSE
Cosmos 1000 Rocket 4.4 19:16:49 10° S 19:22:56 74° E 19:29:03 10° N
Cosmos 1741 Rocket 4.0 19:18:28 10° NNW 19:23:46 86° WSW 19:27:20 21° SSE
Resurs 01 Rocket 2.1 19:22:10 14° S 19:25:49 56° W 19:30:10 10° NNW
Ariane Rocket 4.3 19:22:06 10° SSW 19:26:46 36° W 19:31:27 10° NNW
Meteor 1-16 Rocket 4.0 19:21:42 10° N 19:27:07 79° E 19:30:36 22° SSE
Lacrosse 5 3.1 19:22:58 10° WNW 19:27:27 32° WSW 19:30:41 16° S
Cosmos 2322 3.6 19:24:02 10° S 19:29:37 68° ESE 19:35:14 10° NNE
Cosmos 1300 4.2 19:27:56 10° NNE 19:30:53 21° ENE 19:31:23 21° E
COSMOS 2428 3.0 19:27:15 18° S 19:31:17 46° ESE 19:36:45 10° NE
Landsat 7 4.2 19:28:27 17° S 19:32:05 61° W 19:36:48 10° NNW
SPOT 3 Rocket 3.8 19:28:31 16° S 19:32:33 65° WSW 19:37:43 10° NNW
Cosmos 1340 2.8 19:32:47 36° SSE 19:33:56 51° E 19:37:36 10° NNE
Aureole 1 Rocket 4.3 19:28:28 10° NNW 19:34:57 80° ENE 19:40:11 23° SSE
Cosmos 2278 Rocket 4.3 19:32:47 10° NNE 19:35:51 15° NE 19:38:55 10° E
Cosmos 1844 Rocket 2.7 19:32:02 10° NNW 19:37:44 85° ENE 19:40:50 28° SSE
BREEZE-M DEB (TANK) 3.3 19:42:09 10° NW 19:44:38 26° NNE 19:44:53 26° NE
Cosmos 2123 Rocket 4.0 19:45:08 22° S 19:49:18 74° E 19:55:38 10° N
Uosat 12 SS-18 rocket 3.9 19:49:53 18° SSW 19:52:58 78° ESE 19:57:42 10° NNE
Cosmos 2061 Rocket 4.1 19:48:23 10° N 19:54:48 69° E 19:57:52 32° SSE
Cosmos 1626 3.0 19:55:02 22° SW 19:57:07 45° W 20:00:41 10° N
Cosmos 1992 Rocket 4.5 19:57:54 36° ESE 19:58:38 38° ESE 20:03:27 10° NE
Cosmos 1908 4.1 19:55:31 10° NNW 19:59:12 43° W 20:00:43 28° SW
Cosmos 1544 Rocket 3.7 19:56:12 10° NNW 20:00:39 72° W 20:02:15 38° S
ARIANE 5 R/B 2.6 20:01:01 42° S 20:02:30 79° WSW 20:07:00 10° NNW
Cosmos 1455 Rocket 4.4 20:00:52 10° NNW 20:04:57 36° W 20:07:25 20° SW
ATLAS 3B R/B 3.2 19:59:54 10° SW 20:06:18 58° NW 20:12:55 10° NNE
ATLAS CENTAUR R/B 4.0 20:10:25 23° E 20:10:25 23° E 20:15:15 10° NE
Cosmos 1980 4.3 20:09:26 36° ESE 20:09:51 36° ESE 20:15:00 10° NE
Cosmos 1346 Rocket 3.5 20:11:36 39° ENE 20:11:36 39° ENE 20:14:57 10° NNE
Cosmos 1461 4.1 20:11:09 10° NW 20:14:43 29° WSW 20:15:24 27° SW
ATLAS CENTAUR R/B 1.5 20:13:11 10° NNW 20:17:38 86° WSW 20:18:22 63° SSE
SL-08 R/B 4.5 20:12:53 10° N 20:19:15 84° W 20:21:52 38° S
Cosmos 405 3.2 20:16:33 10° NNW 20:19:49 63° W 20:19:49 63° W
SL-4 R/B 2.2 20:17:06 10° WSW 20:21:22 69° NW 20:25:17 10° NE
Meteor 2-5 Rocket 3.7 20:18:44 32° SSW 20:21:24 76° W 20:27:01 10° N
Cosmos 2219 Rocket 2.9 20:16:10 10° SW 20:21:41 52° WNW 20:27:14 10° NNE
SL-8 R/B 3.6 20:16:57 10° WNW 20:21:44 73° SW 20:22:21 63° SSE
Cosmos 2333 Rocket 3.3 20:17:38 10° SW 20:23:05 44° WNW 20:28:33 10° N
Cosmos 2016 Rocket 4.2 20:17:30 10° NNW 20:23:32 65° W 20:26:21 33° SSW
ERS-1 Rocket 3.2 20:24:08 44° SSW 20:25:37 65° W 20:30:38 10° NNW
Geosat 3.9 20:24:37 55° SSE 20:25:46 85° WSW 20:30:50 10° NNW
USA 215 3.2 20:29:30 10° NE 20:35:56 58° SE 20:38:12 39° S
Cosmos 2228 3.2 20:33:02 10° N 20:37:16 59° ENE 20:37:16 59° ENE
Cosmos 1725 Rocket 4.3 20:31:54 10° NNW 20:37:56 58° W 20:40:27 35° SSW
SL-24 R/B 4.5 20:35:35 10° N 20:40:23 72° W 20:41:24 53° SW
SL-16 R/B 3.9 20:42:05 19° E 20:42:05 19° E 20:44:49 10° NE
Terra 2.0 20:41:19 54° SW 20:42:00 61° W 20:46:44 10° NNW
Cosmos 2237 Rocket 2.1 20:41:58 61° SSE 20:42:39 67° ESE 20:48:14 10° NNE
DNEPR-1 R/B 3.8 20:39:25 10° NW 20:43:36 56° WSW 20:43:36 56° WSW
SPOT 5 4.0 20:48:16 32° SW 20:49:33 37° W 20:54:08 10° NNW
Meteor 1-24 Rocket 4.4 20:51:25 31° SW 20:53:33 47° WNW 20:58:50 10° N
Cosmos 1455 3.5 20:52:33 10° N 20:55:06 33° NE 20:55:06 33° NE
Cosmos 1503 Rocket 4.3 20:51:53 10° N 20:57:10 54° ENE 20:57:38 52° E
Okean 1-7 Rocket 4.3 21:16:49 47° NE 21:16:49 47° NE 21:20:14 10° NNE
Cosmos 2278 Rocket 2.0 21:14:57 10° NNW 21:20:38 83° WSW 21:20:55 80° SSW
Cosmos 2034 Rocket 4.3 21:18:42 10° N 21:24:42 51° E 21:25:17 49° E
Cosmos 1726 Rocket 4.2 21:23:09 10° NNW 21:26:53 51° WNW 21:26:53 51° WNW
Cosmos 2058 Rocket 3.6 21:23:33 10° N 21:27:08 57° N 21:27:08 57° N
Cosmos 1867 4.0 21:23:52 10° NW 21:28:54 51° WSW 21:28:54 51° WSW
Meteor 1-21 Rocket 4.1 21:32:05 80° SW 21:32:21 84° W 21:38:05 10° N
Spot 4 4.0 21:41:10 67° NW 21:41:10 67° NW 21:45:22 10° NNW
SJ 16-02 3.1 21:37:19 10° N 21:40:30 23° ENE 21:40:30 23° ENE
Cosmos 1777 Rocket 4.3 21:37:36 10° N 21:42:43 56° ENE 21:42:43 56° ENE
Cosmos 1943 Rocket 3.5 21:41:32 10° N 21:46:19 29° ENE 21:47:23 27° E
Tsikada Rocket 3.9 21:49:24 68° ESE 21:49:38 68° E 21:55:46 10° NNE
USA 229 DEB 3.9 21:51:22 47° E 21:51:22 47° E 21:57:07 10° NE
USA 229 3.9 21:51:30 47° E 21:51:30 47° E 21:57:13 10° NE
ALOS 2 3.3 21:57:53 51° N 21:57:53 51° N 22:01:13 10° N
BREEZE-M DEB (TANK) 4.4 21:49:26 10° W 21:57:31 35° NW 22:00:33 10° NE
NOSS 3-1 (C) 3.1 21:59:23 79° NNE 21:59:23 79° NNE 22:05:00 10° NNE
NOSS 3-1 (A) 3.6 22:11:32 52° ENE 22:11:32 52° ENE 22:16:21 10° NE
Cosmos 724 4.4 22:04:47 10° NNW 22:10:56 71° ENE 22:11:24 68° E
Cosmos 1607 4.4 22:07:10 10° NW 22:12:53 48° WSW 22:12:53 48° WSW
USA 215 4.3 22:12:42 10° NE 22:18:45 42° NNW 22:24:47 10° W
Cosmos 1602 Rocket 4.5 22:20:35 46° NNW 22:20:35 46° NNW 22:23:58 10° N
SL-16 R/B 2.7 22:23:55 49° W 22:24:27 51° WNW 22:29:59 10° NNE
Cosmos 2237 Rocket 4.5 22:23:45 11° W 22:27:13 18° NW 22:30:55 10° NNW
Cosmos 1758 Rocket 4.5 22:28:38 48° N 22:28:38 48° N 22:31:50 10° N
Cosmos-2242 4.0 22:30:22 10° N 22:33:34 46° NNE 22:33:34 46° NNE
GEOS 3 Rocket 4.4 22:38:08 43° W 22:38:08 43° W 22:42:11 10° NW
Cosmos 2279 Rocket 4.2 22:33:35 10° N 22:39:43 57° E 22:40:23 54° ESE
Cosmos 2369 Rocket 3.1 22:35:06 10° N 22:40:31 42° ENE 22:41:39 38° E
Cosmos 468 Rocket 4.2 22:42:30 62° NE 22:42:30 62° NE 22:46:59 10° NNE
Cosmos 1634 Rocket 3.8 22:36:51 10° N 22:43:12 82° W 22:43:33 78° SW
ATLAS 5 CENTAUR R/B 4.0 22:47:38 12° ENE 22:47:38 12° ENE 22:48:07 10° ENE
USA 267 3.4 22:46:54 37° ESE 22:49:40 71° NE 22:56:11 10° NW
PSLV R/B 4.4 22:48:42 10° N 22:52:04 50° NNW 22:52:04 50° NNW
Cosmos 1763 Rocket 3.6 22:55:46 70° N 22:55:46 70° N 23:00:20 10° NNE
Meteor 2-13 Rocket 4.3 22:56:37 77° SE 22:56:59 81° E 23:03:10 10° N
Cosmos 2098 Rocket 4.4 22:59:51 37° E 22:59:51 37° E 23:04:06 10° NNE
Cosmos 2221 4.0 23:00:26 10° NNE 23:03:51 29° ENE 23:03:51 29° ENE
Cosmos 2297 4.4 23:01:47 10° NW 23:06:11 40° W 23:06:11 40° W
Nadezhda 4 Rocket 4.1 23:10:11 56° ESE 23:10:53 60° E 23:16:53 10° NNE
USA 308 4.1 23:18:32 38° NE 23:18:32 38° NE 23:21:14 10° NE
Resurs 1-4 Rocket 3.2 23:13:15 10° NNE 23:18:01 32° E 23:18:23 32° ESE
SJ 16-02 3.4 23:15:43 10° NW 23:17:27 19° WNW 23:17:27 19° WNW
Exosat Rocket 4.2 23:20:17 55° WSW 23:21:18 62° WNW 23:26:43 10° NNE
Helios 1B rocket 4.5 23:19:42 10° NE 23:22:14 19° E 23:22:14 19° E
SL-6 R/B(2) 4.5 23:15:59 10° NNW 23:26:13 74° NE 23:26:34 72° E
ADEOS II 4.1 23:24:11 10° NE 23:27:37 17° E 23:28:57 16° ESE
Cosmos 1943 Rocket 3.2 23:25:06 10° NW 23:28:53 32° W 23:28:53 32° W
Helios 1A 3.5 23:32:32 57° NNE 23:32:32 57° NNE 23:36:02 10° N
Cosmos 540 Rocket 3.4 23:32:30 71° WNW 23:32:30 71° WNW 23:37:29 10° NNE
X-37B 3.3 23:33:14 20° NNE 23:33:14 20° NNE 23:35:10 10° NE
USA 305 3.6 23:35:05 53° NNE 23:35:05 53° NNE 23:38:31 10° NE
Cosmos 1932 4.5 23:28:06 10° NNW 23:34:20 76° ENE 23:36:16 46° SE
Cosmos 1943 3.5 23:36:45 51° W 23:37:20 53° WNW 23:42:51 10° NNE
Cosmos 1437 Rocket 3.9 23:34:44 10° N 23:37:14 39° NNW 23:37:14 39° NNW
CZ-2D R/B 2.5 23:34:49 10° NNE 23:39:53 50° E 23:40:22 49° ESE
Cosmos 841 Rocket 3.5 23:44:06 66° WNW 23:44:12 66° WNW 23:49:20 10° NNE
Lacrosse 4 Rocket 3.5 23:41:17 10° N 23:44:36 24° NE 23:46:46 16° E
Cosmos 1603 4.4 23:46:12 40° W 23:47:06 43° WNW 23:52:29 10° N
Aureole 3 Rocket 4.0 23:42:50 10° N 23:47:06 52° E 23:48:22 42° SE
NOSS 2-2 (C) 4.3 23:49:46 38° NNE 23:49:46 38° NNE 23:52:05 10° NNE
DELTA 2 R/B (1) 3.6 23:47:09 49° W 23:48:41 78° N 23:54:15 10° E
SL-16 R/B 3.1 23:46:03 29° SE 23:49:04 55° ENE 23:55:04 10° N
Meteor 2-19 Rocket 4.4 23:49:23 56° SSE 23:50:42 75° E 23:56:50 10° N
Cosmos 1092 Rocket 3.9 23:51:32 56° SSE 23:52:54 77° E 23:59:03 10° N
Cosmos 1825 4.1 23:54:28 22° NW 23:54:28 22° NW 23:56:28 10° NNW
